Year,Month,Day,Hour,Minute,Value (Times are PST for temperature in C)
2009,02,17,08,13,5.80
2009,02,17,08,14,5.80
2009,02,17,08,15,5.80
2009,02,17,08,16,5.80
2009,02,17,08,17,5.80
2009,02,17,08,18,5.70
2009,02,17,08,19,5.70
2009,02,17,08,20,5.70
2009,02,17,08,21,5.70
2009,02,17,08,22,5.70
2009,02,17,08,23,5.70
2009,02,17,08,24,5.70
2009,02,17,08,25,5.70
2009,02,17,08,26,5.70
2009,02,17,08,27,5.80
2009,02,17,08,28,5.80
2009,02,17,08,29,5.80
2009,02,17,08,30,5.80
2009,02,17,08,31,5.80
2009,02,17,08,32,5.80
2009,02,17,08,33,5.80
2009,02,17,08,34,5.80
2009,02,17,08,35,5.80
2009,02,17,08,36,5.80
2009,02,17,08,37,5.80
2009,02,17,08,38,5.80
2009,02,17,08,39,5.80
2009,02,17,08,40,5.90
2009,02,17,08,41,5.90
2009,02,17,08,42,5.90
2009,02,17,08,43,5.90
2009,02,17,08,44,5.90
2009,02,17,08,45,5.90
2009,02,17,08,46,6.00
2009,02,17,08,47,6.00
2009,02,17,08,48,6.00
2009,02,17,08,49,6.00
2009,02,17,08,50,6.10
2009,02,17,08,51,6.10
2009,02,17,08,52,6.10
2009,02,17,08,53,6.10
2009,02,17,08,54,6.10
2009,02,17,08,55,6.20
2009,02,17,08,56,6.20
2009,02,17,08,57,6.20
2009,02,17,08,58,6.20
2009,02,17,08,59,6.20
2009,02,17,09,00,6.20
2009,02,17,09,01,6.20
2009,02,17,09,02,6.20
2009,02,17,09,03,6.20
2009,02,17,09,04,6.20
2009,02,17,09,05,6.20
2009,02,17,09,06,6.20
2009,02,17,09,07,6.20
2009,02,17,09,08,6.30
2009,02,17,09,09,6.30
2009,02,17,09,10,6.30
2009,02,17,09,11,6.30
2009,02,17,09,12,6.30
2009,02,17,09,13,6.30
2009,02,17,09,14,6.30
2009,02,17,09,15,6.40
2009,02,17,09,16,6.40
2009,02,17,09,17,6.40
2009,02,17,09,18,6.40
2009,02,17,09,19,6.50
2009,02,17,09,20,6.50
2009,02,17,09,21,6.50
2009,02,17,09,22,6.60
2009,02,17,09,23,6.60
2009,02,17,09,24,6.60
2009,02,17,09,25,6.60
2009,02,17,09,26,6.60
2009,02,17,09,27,6.60
2009,02,17,09,28,6.60
2009,02,17,09,29,6.60
2009,02,17,09,30,6.60
2009,02,17,09,31,6.60
2009,02,17,09,32,6.60
2009,02,17,09,33,6.70
2009,02,17,09,34,6.70
2009,02,17,09,35,6.70
2009,02,17,09,36,6.70
2009,02,17,09,37,6.80
2009,02,17,09,38,6.80
2009,02,17,09,39,6.80
2009,02,17,09,40,6.80
2009,02,17,09,41,6.90
2009,02,17,09,42,6.90
2009,02,17,09,43,6.90
2009,02,17,09,44,6.90
2009,02,17,09,45,6.90
2009,02,17,09,46,7.00
2009,02,17,09,47,7.00
2009,02,17,09,48,7.00
2009,02,17,09,49,7.10
2009,02,17,09,50,7.10
2009,02,17,09,51,7.10
2009,02,17,09,52,7.10
2009,02,17,09,53,7.10
2009,02,17,09,54,7.20
2009,02,17,09,55,7.20
2009,02,17,09,56,7.20
2009,02,17,09,57,7.20
2009,02,17,09,58,7.20
2009,02,17,09,59,7.20
2009,02,17,10,00,7.10
2009,02,17,10,01,7.20
2009,02,17,10,02,7.20
2009,02,17,10,03,7.20
2009,02,17,10,04,7.20
2009,02,17,10,05,7.20
2009,02,17,10,06,7.20
2009,02,17,10,07,7.20
2009,02,17,10,08,7.10
2009,02,17,10,09,7.10
2009,02,17,10,10,7.10
2009,02,17,10,11,7.00
2009,02,17,10,12,7.00
2009,02,17,10,13,7.00
2009,02,17,10,14,7.00
2009,02,17,10,15,7.00
2009,02,17,10,16,6.90
2009,02,17,10,17,6.90
2009,02,17,10,18,6.90
2009,02,17,10,19,7.00
2009,02,17,10,20,7.00
2009,02,17,10,21,7.00
2009,02,17,10,22,7.10
2009,02,17,10,23,7.10
2009,02,17,10,24,7.10
2009,02,17,10,25,7.10
2009,02,17,10,26,7.10
2009,02,17,10,27,7.00
2009,02,17,10,28,7.00
2009,02,17,10,29,7.00
2009,02,17,10,30,7.00
2009,02,17,10,31,7.00
2009,02,17,10,32,6.90
2009,02,17,10,33,6.90
2009,02,17,10,34,6.90
2009,02,17,10,35,6.90
2009,02,17,10,36,7.00
2009,02,17,10,37,7.00
2009,02,17,10,38,6.90
2009,02,17,10,39,6.90
2009,02,17,10,40,6.90
2009,02,17,10,41,6.90
2009,02,17,10,42,6.90
2009,02,17,10,43,6.90
2009,02,17,10,44,6.90
2009,02,17,10,45,6.90
2009,02,17,10,46,6.90
2009,02,17,10,47,6.90
2009,02,17,10,48,6.90
2009,02,17,10,49,6.90
2009,02,17,10,50,7.00
2009,02,17,10,51,7.00
2009,02,17,10,52,7.00
2009,02,17,10,53,7.00
2009,02,17,10,54,7.00
2009,02,17,10,55,7.00
2009,02,17,10,56,7.10
2009,02,17,10,57,7.10
2009,02,17,10,58,7.10
2009,02,17,10,59,7.10
2009,02,17,11,00,7.10
2009,02,17,11,01,7.10
2009,02,17,11,02,7.00
2009,02,17,11,03,7.00
2009,02,17,11,04,7.00
2009,02,17,11,05,7.00
2009,02,17,11,06,7.00
2009,02,17,11,07,7.00
2009,02,17,11,08,7.00
2009,02,17,11,09,7.00
2009,02,17,11,10,7.00
2009,02,17,11,11,7.00
2009,02,17,11,12,7.10
2009,02,17,11,13,7.20
2009,02,17,11,14,7.30
2009,02,17,11,15,7.30
2009,02,17,11,16,7.30
2009,02,17,11,17,7.40
2009,02,17,11,18,7.40
2009,02,17,11,19,7.40
2009,02,17,11,20,7.40
2009,02,17,11,21,7.40
2009,02,17,11,22,7.50
2009,02,17,11,23,7.60
2009,02,17,11,24,7.60
2009,02,17,11,25,7.60
2009,02,17,11,26,7.60
2009,02,17,11,27,7.60
2009,02,17,11,28,7.60
2009,02,17,11,29,7.60
2009,02,17,11,30,7.60
2009,02,17,11,31,7.60
2009,02,17,11,32,7.60
2009,02,17,11,33,7.60
2009,02,17,11,34,7.60
2009,02,17,11,35,7.50
2009,02,17,11,36,7.50
2009,02,17,11,37,7.50
2009,02,17,11,38,7.50
2009,02,17,11,39,7.60
2009,02,17,11,40,7.60
2009,02,17,11,41,7.60
2009,02,17,11,42,7.60
2009,02,17,11,43,7.60
2009,02,17,11,44,7.60
2009,02,17,11,45,7.60
2009,02,17,11,46,7.60
2009,02,17,11,47,7.60
2009,02,17,11,48,7.60
2009,02,17,11,49,7.60
2009,02,17,11,50,7.60
2009,02,17,11,51,7.60
2009,02,17,11,52,7.60
2009,02,17,11,53,7.50
2009,02,17,11,54,7.50
2009,02,17,11,55,7.40
2009,02,17,11,56,7.40
2009,02,17,11,57,7.40
2009,02,17,11,58,7.40
2009,02,17,11,59,7.50
2009,02,17,12,00,7.50
2009,02,17,12,01,7.60
2009,02,17,12,02,7.70
2009,02,17,12,03,7.80
2009,02,17,12,04,7.80
2009,02,17,12,05,7.80
2009,02,17,12,06,7.90
2009,02,17,12,07,7.90
2009,02,17,12,08,7.90
2009,02,17,12,09,8.00
2009,02,17,12,10,8.00
2009,02,17,12,11,7.90
2009,02,17,12,12,7.90
2009,02,17,12,13,7.90
2009,02,17,12,14,8.00
2009,02,17,12,15,7.90
2009,02,17,12,16,7.80
2009,02,17,12,17,7.80
2009,02,17,12,18,7.70
2009,02,17,12,19,7.60
2009,02,17,12,20,7.60
2009,02,17,12,21,7.60
2009,02,17,12,22,7.70
2009,02,17,12,23,7.70
2009,02,17,12,24,7.80
2009,02,17,12,25,7.90
2009,02,17,12,26,8.00
2009,02,17,12,27,8.00
2009,02,17,12,28,8.00
2009,02,17,12,29,8.00
2009,02,17,12,30,8.00
2009,02,17,12,31,8.00
2009,02,17,12,32,8.00
2009,02,17,12,33,8.00
2009,02,17,12,34,8.00
2009,02,17,12,35,8.00
2009,02,17,12,36,8.00
2009,02,17,12,37,8.00
2009,02,17,12,38,8.00
2009,02,17,12,39,8.00
2009,02,17,12,40,8.00
2009,02,17,12,41,8.00
2009,02,17,12,42,8.00
2009,02,17,12,43,7.90
2009,02,17,12,44,7.90
2009,02,17,12,45,8.00
2009,02,17,12,46,8.00
2009,02,17,12,47,8.00
2009,02,17,12,48,7.90
2009,02,17,12,49,7.90
2009,02,17,12,50,7.90
2009,02,17,12,51,7.90
2009,02,17,12,52,7.90
2009,02,17,12,53,7.80
2009,02,17,12,54,7.80
2009,02,17,12,55,7.80
2009,02,17,12,56,7.80
2009,02,17,12,57,7.80
2009,02,17,12,58,7.80
2009,02,17,12,59,7.80
2009,02,17,13,00,7.80
2009,02,17,13,01,7.80
2009,02,17,13,02,7.80
2009,02,17,13,03,7.70
2009,02,17,13,04,7.80
2009,02,17,13,05,7.80
2009,02,17,13,06,7.90
2009,02,17,13,07,7.90
2009,02,17,13,08,8.00
2009,02,17,13,09,8.10
2009,02,17,13,10,8.20
2009,02,17,13,11,8.20
2009,02,17,13,12,8.20
2009,02,17,13,13,8.20
2009,02,17,13,14,8.20
2009,02,17,13,15,8.20
2009,02,17,13,16,8.20
2009,02,17,13,17,8.10
2009,02,17,13,18,8.10
2009,02,17,13,19,8.10
2009,02,17,13,20,8.10
2009,02,17,13,21,8.10
2009,02,17,13,22,8.10
2009,02,17,13,23,8.10
2009,02,17,13,24,8.10
2009,02,17,13,25,8.10
2009,02,17,13,26,8.10
2009,02,17,13,27,8.10
2009,02,17,13,28,8.10
2009,02,17,13,29,8.10
2009,02,17,13,30,8.10
2009,02,17,13,31,8.10
2009,02,17,13,32,8.20
2009,02,17,13,33,8.20
2009,02,17,13,34,8.30
2009,02,17,13,35,8.30
2009,02,17,13,36,8.30
2009,02,17,13,37,8.30
2009,02,17,13,38,8.40
2009,02,17,13,39,8.40
2009,02,17,13,40,8.30
2009,02,17,13,41,8.30
2009,02,17,13,42,8.30
2009,02,17,13,43,8.40
2009,02,17,13,44,8.40
2009,02,17,13,45,8.40
2009,02,17,13,46,8.40
2009,02,17,13,47,8.40
2009,02,17,13,48,8.40
2009,02,17,13,49,8.40
2009,02,17,13,50,8.40
2009,02,17,13,51,8.40
2009,02,17,13,52,8.40
2009,02,17,13,53,8.50
2009,02,17,13,54,8.50
2009,02,17,13,55,8.60
2009,02,17,13,56,8.60
2009,02,17,13,57,8.70
2009,02,17,13,58,8.70
2009,02,17,13,59,8.80
2009,02,17,14,00,8.80
2009,02,17,14,01,8.90
2009,02,17,14,02,9.00
2009,02,17,14,03,9.00
2009,02,17,14,04,9.00
2009,02,17,14,05,9.10
2009,02,17,14,06,9.10
2009,02,17,14,07,9.10
2009,02,17,14,08,9.20
2009,02,17,14,09,9.20
2009,02,17,14,10,9.20
2009,02,17,14,11,9.20
2009,02,17,14,12,9.20
2009,02,17,14,13,9.30
2009,02,17,14,14,9.30
2009,02,17,14,15,9.30
2009,02,17,14,16,9.30
2009,02,17,14,17,9.30
2009,02,17,14,18,9.30
2009,02,17,14,19,9.30
2009,02,17,14,20,9.30
2009,02,17,14,21,9.30
2009,02,17,14,22,9.30
2009,02,17,14,23,9.30
2009,02,17,14,24,9.40
2009,02,17,14,25,9.50
2009,02,17,14,26,9.50
2009,02,17,14,27,9.60
2009,02,17,14,28,9.60
2009,02,17,14,29,9.60
2009,02,17,14,30,9.50
2009,02,17,14,31,9.60
2009,02,17,14,32,9.60
2009,02,17,14,33,9.60
2009,02,17,14,34,9.70
2009,02,17,14,35,9.70
2009,02,17,14,36,9.70
2009,02,17,14,37,9.70
2009,02,17,14,38,9.80
2009,02,17,14,39,9.80
2009,02,17,14,40,9.90
2009,02,17,14,41,10.00
2009,02,17,14,42,10.00
2009,02,17,14,43,10.00
2009,02,17,14,44,10.00
2009,02,17,14,45,9.90
2009,02,17,14,46,9.90
2009,02,17,14,47,9.80
2009,02,17,14,48,9.80
2009,02,17,14,49,9.80
2009,02,17,14,50,9.90
2009,02,17,14,51,9.90
2009,02,17,14,52,10.00
2009,02,17,14,53,10.10
2009,02,17,14,54,10.10
2009,02,17,14,55,10.10
2009,02,17,14,56,10.10
2009,02,17,14,57,10.20
2009,02,17,14,58,10.20
2009,02,17,14,59,10.10
2009,02,17,15,00,10.10
2009,02,17,15,01,10.00
2009,02,17,15,02,10.00
2009,02,17,15,03,10.00
2009,02,17,15,04,10.00
2009,02,17,15,05,10.10
2009,02,17,15,06,10.10
2009,02,17,15,07,10.10
2009,02,17,15,08,10.10
2009,02,17,15,09,10.10
2009,02,17,15,10,10.00
2009,02,17,15,11,9.90
2009,02,17,15,12,9.80
2009,02,17,15,13,9.80
2009,02,17,15,14,9.80
2009,02,17,15,15,9.90
2009,02,17,15,16,9.90
2009,02,17,15,17,10.00
2009,02,17,15,18,10.00
2009,02,17,15,19,10.00
2009,02,17,15,20,10.00
2009,02,17,15,21,10.00
2009,02,17,15,22,10.00
2009,02,17,15,23,10.00
2009,02,17,15,24,9.90
2009,02,17,15,25,10.00
2009,02,17,15,26,10.00
2009,02,17,15,27,10.10
2009,02,17,15,28,10.10
2009,02,17,15,29,10.10
2009,02,17,15,30,10.10
2009,02,17,15,31,10.00
2009,02,17,15,32,10.00
2009,02,17,15,33,10.00
2009,02,17,15,34,9.90
2009,02,17,15,35,9.80
2009,02,17,15,36,9.80
2009,02,17,15,37,9.80
2009,02,17,15,38,9.80
2009,02,17,15,39,9.80
2009,02,17,15,40,9.80
2009,02,17,15,41,9.80
2009,02,17,15,42,9.80
2009,02,17,15,43,9.80
2009,02,17,15,44,9.80
2009,02,17,15,45,9.80
2009,02,17,15,46,9.80
2009,02,17,15,47,9.80
2009,02,17,15,48,9.70
2009,02,17,15,49,9.80
2009,02,17,15,50,9.80
2009,02,17,15,51,9.90
2009,02,17,15,52,9.90
2009,02,17,15,53,9.80
2009,02,17,15,54,9.80
2009,02,17,15,55,9.80
2009,02,17,15,56,9.90
2009,02,17,15,57,9.90
2009,02,17,15,58,9.90
2009,02,17,15,59,9.90
2009,02,17,16,00,9.90
2009,02,17,16,01,9.90
2009,02,17,16,02,9.90
2009,02,17,16,03,9.80
2009,02,17,16,04,9.80
2009,02,17,16,05,9.70
2009,02,17,16,06,9.70
2009,02,17,16,07,9.70
2009,02,17,16,08,9.70
2009,02,17,16,09,9.70
2009,02,17,16,10,9.70
2009,02,17,16,11,9.70
2009,02,17,16,12,9.70
2009,02,17,16,13,9.60
2009,02,17,16,14,9.60
2009,02,17,16,15,9.60
2009,02,17,16,16,9.60
2009,02,17,16,17,9.60
2009,02,17,16,18,9.60
2009,02,17,16,19,9.70
2009,02,17,16,20,9.70
2009,02,17,16,21,9.70
2009,02,17,16,22,9.70
2009,02,17,16,23,9.70
2009,02,17,16,24,9.70
2009,02,17,16,25,9.70
2009,02,17,16,26,9.70
2009,02,17,16,27,9.70
2009,02,17,16,28,9.70
2009,02,17,16,29,9.70
2009,02,17,16,30,9.70
2009,02,17,16,31,9.60
2009,02,17,16,32,9.60
2009,02,17,16,33,9.60
2009,02,17,16,34,9.60
2009,02,17,16,35,9.60
2009,02,17,16,36,9.50
2009,02,17,16,37,9.40
2009,02,17,16,38,9.40
2009,02,17,16,39,9.30
2009,02,17,16,40,9.30
2009,02,17,16,41,9.40
2009,02,17,16,42,9.40
2009,02,17,16,43,9.40
2009,02,17,16,44,9.40
2009,02,17,16,45,9.30
2009,02,17,16,46,9.30
2009,02,17,16,47,9.30
2009,02,17,16,48,9.30
2009,02,17,16,49,9.30
2009,02,17,16,50,9.30
2009,02,17,16,51,9.30
2009,02,17,16,52,9.30
2009,02,17,16,53,9.30
2009,02,17,16,54,9.30
2009,02,17,16,55,9.30
2009,02,17,16,56,9.30
2009,02,17,16,57,9.30
2009,02,17,16,58,9.30
2009,02,17,16,59,9.30
2009,02,17,17,00,9.30
2009,02,17,17,01,9.40
2009,02,17,17,02,9.40
2009,02,17,17,03,9.30
2009,02,17,17,04,9.30
2009,02,17,17,05,9.30
2009,02,17,17,06,9.30
2009,02,17,17,07,9.30
2009,02,17,17,08,9.20
2009,02,17,17,09,9.20
2009,02,17,17,10,9.10
2009,02,17,17,11,9.00
2009,02,17,17,12,9.00
2009,02,17,17,13,8.90
2009,02,17,17,14,8.90
2009,02,17,17,15,8.80
2009,02,17,17,16,8.80
2009,02,17,17,17,8.80
2009,02,17,17,18,8.80
2009,02,17,17,19,8.80
2009,02,17,17,20,8.80
2009,02,17,17,21,8.70
2009,02,17,17,22,8.70
2009,02,17,17,23,8.70
2009,02,17,17,24,8.70
2009,02,17,17,25,8.70
2009,02,17,17,26,8.70
2009,02,17,17,27,8.70
2009,02,17,17,28,8.70
2009,02,17,17,29,8.70
2009,02,17,17,30,8.70
2009,02,17,17,31,8.70
